www.pogodaiklimat.ru

Погода и климат >> Архив погоды >> Великобритания >> Леконфилд


ПОГОДА в Леконфилде

  • Прогноз погоды в Леконфилде
  • Монитор погоды в Леконфилде

АРХИВ ПОГОДЫ в Леконфилде

Время (UTC), дата Ветер
(напр.,м/с)
 
Видим.   Явления Облачность Т
(С)
Тd
(С)
f
(%)
Тe
(С)
Тes
(С)
Комфортность P
(гПа)
Po
(гПа)
Тmin
(С)
Tmax
(С)
R
(мм)
R24
(мм)
S
(см)
01 10.06 З 1 9000 м в посл. час туман н/о +8.1 +7.8 98 +7 +7 1018.5 1017.6
02 10.06 Ю 1 11 км дымка н/о +7.8 +7.6 99 +7 +7 1018.6 1017.7
03 10.06 З 1 16 км н/о +8.1 +7.8 98 +8 +8 1018.0 1017.1
04 10.06 С 2 9000 м н/о +7.8 +7.4 97 +6 +6 1017.7 1016.8
05 10.06 СЗ 2 24 км в посл. час дождь н/о +8.7 +8.2 97 +7 +7 1017.6 1016.7
06 10.06 С 1 29 км н/о +9.5 +8.9 96 +9 +9 1017.7 1016.8 +7.4 2
07 10.06 С 2 35 км н/о +11.9 +10.1 89 +11 +11 1017.9 1017.0
08 10.06 СВ 3 45 км н/о +13.0 +10.3 84 +12 +12 1017.9 1017.1
09 10.06 СВ 2 30 км в посл. час дождь н/о +12.5 +10.1 85 +12 +12 1018.0 1017.2
10 10.06 СВ 2 14 км слаб. ливневой дождь н/о +13.7 +11.7 88 +13 +13 1018.1 1017.2
11 10.06 СВ 4 15 км слаб. дождь н/о +13.0 +11.2 89 +11 +11 1018.3 1017.4
12 10.06 СВ 3 11 км слаб. дождь н/о +12.7 +11.6 93 +11 +11 1018.2 1017.4 0.6
13 10.06 С 2 11 км дождь н/о +13.1 +11.7 91 +13 +13 1018.1 1017.3
14 10.06 СЗ 2 4800 м дождь н/о +13.0 +11.8 92 +12 +12 1017.5 1016.6
15 10.06 С 5 10 км слаб. дождь н/о +12.7 +11.5 92 +11 +11 1017.4 1016.6
16 10.06 С 4 16 км в посл. час дождь н/о +12.8 +11.0 89 +11 +11 1017.6 1016.8
17 10.06 С 4 24 км н/о +12.6 +10.4 86 +11 +11 1017.6 1016.7
18 10.06 С 4 29 км н/о +12.5 +10.5 88 +10 +10 1017.6 1016.7 +13.9 3
19 10.06 С 5 30 км н/о +12.2 +10.3 88 +10 +10 1017.5 1016.6
20 10.06 С 5 18 км н/о +12.0 +10.5 91 +9 +9 1017.1 1016.3
21 10.06 СВ 5 23 км н/о +11.9 +10.1 89 +9 +9 1017.1 1016.2
22 10.06 С 5 26 км н/о +11.9 +9.3 84 +9 +9 1017.0 1016.2
23 10.06 С 6 23 км н/о +12.1 +9.6 85 +9 +9 1016.8 1016.0
00 11.06 СВ 6 22 км слаб. ливневой дождь н/о +12.1 +9.9 86 +9 +9 1016.9 1016.1 0.0
01 11.06 С 6 13 км слаб. ливневой дождь н/о +11.8 +10.5 92 +9 +9 1016.5 1015.7
02 11.06 С 7 14 км в посл. час дождь н/о +11.9 +10.5 91 +9 +9 1016.3 1015.5
03 11.06 С 7 12 км слаб. ливневой дождь н/о +11.7 +10.3 91 +8 +8 1016.2 1015.3
04 11.06 С 8
{13}
11 км слаб. дождь н/о +11.1 +10.2 94 +7 +7 1015.8 1015.0
05 11.06 С 8
{13}
12 км в посл. час дождь н/о +11.0 +9.9 93 +7 +7 1015.9 1015.0
06 11.06 С 9-14
{16}
14 км н/о +11.1 +9.5 90 +7 +7 1015.7 1014.8 +10.9 0.4
07 11.06 СВ 9-14
{15}
14 км слаб. морось с дождем н/о +11.2 +9.2 87 +7 +7 1016.0 1015.1
08 11.06 С 9
{13}
14 км слаб. дождь н/о +11.1 +9.3 89 +7 +7 1016.1 1015.2
09 11.06 С 8-14
{14}
16 км слаб. дождь н/о +11.1 +9.2 88 +7 +7 1016.4 1015.6
10 11.06 С 8 19 км слаб. дождь н/о +10.7 +8.9 89 +7 +7 1016.7 1015.9
11 11.06 С 8
{14}
14 км слаб. дождь н/о +11.2 +8.8 85 +8 +8 1016.7 1015.8
12 11.06 С 9-15
{15}
19 км в посл. час дождь н/о +11.1 +8.6 85 +7 +7 1016.7 1015.9 0.4
13 11.06 СВ 8
{13}
19 км в посл. час дождь н/о +11.1 +8.4 83 +8 +8 1016.8 1015.9
14 11.06 СВ 8-13
{13}
10 км ливневой дождь н/о +10.6 +9.0 90 +7 +7 1016.9 1016.1
15 11.06 С 8
{14}
15 км слаб. дождь н/о +10.7 +9.2 90 +7 +7 1016.7 1015.8
16 11.06 С 7 14 км слаб. дождь н/о +10.4 +8.8 90 +7 +7 1016.5 1015.7
17 11.06 С 7 9000 м дождь н/о +10.1 +9.1 94 +6 +6 1016.3 1015.5
18 11.06 С 6 10 км слаб. дождь н/о +10.2 +9.4 95 +7 +7 1016.0 1015.2 +11.6 2
19 11.06 С 6 12 км слаб. дождь н/о +10.0 +9.2 95 +6 +6 1015.7 1014.8
20 11.06 С 7 10 км дождь н/о +9.9 +9.1 95 +6 +6 1015.5 1014.7
21 11.06 С 5 10 км слаб. дождь н/о +9.9 +9.2 95 +7 +7 1015.3 1014.5
22 11.06 С 5 17 км слаб. дождь н/о +10.0 +9.1 94 +7 +7 1014.8 1014.0
23 11.06 С 5 13 км слаб. дождь н/о +10.1 +9.2 94 +7 +7 1014.5 1013.6
00 12.06 С 6 8000 м слаб. дождь н/о +10.2 +9.5 95 +7 +7 1013.5 1012.6 3
01 12.06 С 5 8000 м слаб. морось н/о +10.2 +9.6 96 +7 +7 1012.8 1012.0
02 12.06 С 6 4700 м слаб. морось н/о +10.2 +9.8 97 +7 +7 1012.1 1011.3
03 12.06 С 6 4500 м слаб. морось н/о +10.4 +9.9 97 +7 +7 1011.4 1010.5
04 12.06 С 5 7000 м морось н/о +10.6 +10.3 98 +8 +8 1011.0 1010.2
05 12.06 С 4 3900 м слаб. морось н/о +11.1 +10.9 99 +8 +8 1010.4 1009.6
06 12.06 С 4 4800 м в посл. час дождь н/о +11.7 +11.6 99 +9 +9 1010.0 1009.1 +9.8 6
07 12.06 СВ 4 3600 м дымка н/о +12.1 +11.9 99 +10 +10 1010.3 1009.4
08 12.06 С 4 3700 м в посл. час дождь н/о +12.3 +12.1 99 +10 +10 1010.0 1009.1
09 12.06 С 4 9000 м дымка н/о +12.7 +12.5 99 +11 +11 1010.0 1009.2
10 12.06 СВ 4 3300 м дымка н/о +13.1 +12.8 98 +11 +11 1010.0 1009.2
11 12.06 СВ 4 15 км в посл. час дождь н/о +12.7 +12.5 99 +11 +11 1009.9 1009.1
12 12.06 СВ 2 16 км н/о +13.6 +13.0 96 +13 +13 1009.7 1008.9 0.4
13 12.06 СВ 3 25 км н/о +14.1 +12.6 91 +13 +13 1009.3 1008.4
14 12.06 СВ 4 26 км в посл. час туман н/о +13.8 +12.1 89 +12 +12 1008.9 1008.0
15 12.06 В 5 11 км н/о +13.2 +11.8 91 +11 +11 1009.2 1008.3
16 12.06 В 3 19 км н/о +12.9 +11.7 92 +11 +11 1008.5 1007.7
17 12.06 СВ 4 9000 м в посл. час дождь н/о +12.7 +11.4 92 +11 +11 1008.3 1007.4
18 12.06 СВ 4 24 км н/о +12.3 +11.0 92 +10 +10 1008.0 1007.2 +14.5 0.4
19 12.06 СВ 4 8000 м в посл. час дождь н/о +11.9 +10.8 93 +10 +10 1007.5 1006.7
20 12.06 СВ 2 4600 м дымка н/о +11.6 +11.0 96 +11 +11 1007.5 1006.6
21 12.06 В 1 5000 м дождь н/о +11.1 +10.7 97 +11 +11 1007.2 1006.3
22 12.06 В 1 5000 м дождь н/о +11.0 +10.7 98 +11 +11 1006.5 1005.6
23 12.06 штиль 0 400 м туман н/о +10.3 +10.0 98 +9 +9 1005.7 1004.9
00 13.06 штиль 0 5000 м в посл. час туман н/о +10.7 +10.5 99 +10 +10 1005.3 1004.4 5
01 13.06 В 1 2400 м дымка н/о +10.5 +10.4 99 +10 +10 1004.8 1003.9
02 13.06 ЮВ 1 500 м туман н/о +10.3 +10.2 99 +10 +10 1003.8 1002.9
03 13.06 С 1 3100 м в посл. час туман н/о +9.9 +9.8 99 +9 +9 1003.2 1002.3
04 13.06 В 1 10 км в посл. час дождь н/о +10.1 +10.0 99 +10 +10 1002.7 1001.8
05 13.06 Ю 1 6000 м дымка н/о +10.3 +10.2 99 +11 +11 1002.6 1001.8
06 13.06 ЮВ 1 5000 м слаб. морось с дождем н/о +10.8 +10.8 100 +10 +10 1002.3 1001.4 +9.9 5
07 13.06 В 2 6000 м слаб. ливневой дождь н/о +11.2 +11.0 99 +10 +10 1001.7 1000.9
08 13.06 ЮВ 2 2800 м слаб. морось с дождем н/о +11.2 +10.8 97 +10 +10 1001.6 1000.8
09 13.06 В 2 3700 м слаб. морось с дождем н/о +11.8 +10.9 94 +11 +11 1001.0 1000.2
10 13.06 С 1 11 км в посл. час дождь н/о +11.9 +10.8 93 +13 +13 1000.7 999.8
11 13.06 ЮЗ 1 30 км в посл. час дождь н/о +12.8 +11.3 91 +13 +13 1000.5 999.7
12 13.06 З 2 10 км слаб. ливневой дождь н/о +12.3 +11.1 92 +12 +12 1000.5 999.7 1
13 13.06 З 4 15 км слаб. ливневой дождь н/о +12.6 +11.2 91 +11 +11 1000.7 999.9
14 13.06 З 4 17 км слаб. морось н/о +12.2 +11.3 94 +10 +10 1001.3 1000.4
15 13.06 СЗ 4 21 км в посл. час дождь н/о +11.7 +10.0 89 +9 +9 1001.7 1000.9
16 13.06 СЗ 3 40 км в посл. час дождь н/о +11.4 +9.4 88 +9 +9 1002.2 1001.4
17 13.06 СЗ 4 30 км слаб. морось с дождем н/о +11.1 +8.7 85 +9 +9 1002.7 1001.9
18 13.06 СЗ 3 35 км слаб. дождь н/о +11.3 +9.4 88 +10 +10 1003.0 1002.2 +13.5 1
19 13.06 СЗ 2 24 км слаб. дождь н/о +10.6 +9.1 90 +10 +10 1003.8 1002.9
20 13.06 штиль 0 50 км в посл. час дождь н/о +10.4 +8.9 90 +10 +10 1004.2 1003.4
21 13.06 ЮВ 1 50 км н/о +10.1 +9.2 94 +9 +9 1005.1 1004.2
22 13.06 Ю 1 50 км н/о +10.0 +9.3 95 +9 +9 1005.7 1004.8
23 13.06 Ю 1 24 км н/о +9.9 +9.3 96 +9 +9 1005.9 1005.1
00 14.06 Ю 2 8000 м дымка н/о +9.7 +9.2 97 +8 +8 1005.9 1005.1 0.2
01 14.06 Ю 2 5000 м дымка н/о +8.8 +8.5 98 +7 +7 1006.1 1005.3
02 14.06 Ю 2 4400 м дымка н/о +8.3 +8.0 98 +7 +7 1005.8 1005.0
03 14.06 Ю 1 3200 м слаб. ливневой дождь н/о +8.9 +8.8 99 +9 +9 1005.9 1005.1
04 14.06 Ю 2 3000 м слаб. дождь н/о +9.6 +9.6 100 +8 +8 1006.3 1005.4
05 14.06 Ю 1 2500 м слаб. морось н/о +9.9 +9.7 99 +9 +9 1006.4 1005.6
06 14.06 ЮВ 1 2300 м дождь н/о +10.1 +9.9 99 +9 +9 1006.5 1005.7 +8.0 2
07 14.06 Ю 1 4700 м слаб. дождь н/о +11.0 +11.0 100 +10 +10 1006.6 1005.8
08 14.06 Ю 3 14 км в посл. час дождь н/о +12.1 +11.2 94 +11 +11 1006.8 1006.0
09 14.06 Ю 3 20 км в посл. час дождь н/о +12.9 +11.6 92 +12 +12 1007.0 1006.1
10 14.06 Ю 4 4500 м слаб. ливневой дождь н/о +12.7 +11.8 94 +11 +11 1007.0 1006.2
11 14.06 Ю 4 30 км в посл. час дождь н/о +14.7 +12.6 87 +13 +13 1007.0 1006.1
12 14.06 ЮЗ 4 40 км в посл. час дождь н/о +14.9 +11.6 81 +14 +14 1007.3 1006.5 2
13 14.06 ЮЗ 5 30 км н/о +15.6 +11.0 74 +14 +14 1008.0 1007.2
14 14.06 ЮЗ 4 45 км н/о +16.1 +11.1 72 +15 +15 1008.5 1007.7
15 14.06 Ю 3 40 км в посл. час дождь н/о +15.3 +12.1 81 +15 +15 1008.6 1007.7
16 14.06 Ю 4 45 км н/о +16.6 +10.9 69 +16 +16 1008.5 1007.7
17 14.06 Ю 4 30 км н/о +16.7 +10.1 65 +16 +16 1008.8 1007.9
18 14.06 Ю 3 50 км в посл. час дождь н/о +16.5 +11.8 74 +16 +16 1008.9 1008.1 +17.4 2
19 14.06 Ю 2 50 км в посл. час дождь н/о +15.4 +11.3 77 +15 +15 1009.0 1008.2
20 14.06 ЮЗ 1 50 км н/о +12.8 +10.6 86 +13 +13 1009.5 1008.7
21 14.06 ЮЗ 1 45 км н/о +10.9 +9.6 92 +11 +11 1010.0 1009.2
22 14.06 ЮВ 1 28 км н/о +10.4 +9.8 96 +10 +10 1010.1 1009.2
23 14.06 ЮВ 1 18 км н/о +10.9 +10.5 97 +10 +10 1010.3 1009.4
00 15.06 Ю 2 27 км н/о +12.2 +11.7 97 +11 +11 1010.4 1009.6 0.0
01 15.06 Ю 2 30 км н/о +11.4 +10.5 94 +10 +10 1010.4 1009.6
02 15.06 Ю 2 26 км н/о +11.1 +10.3 95 +10 +10 1010.3 1009.4
03 15.06 ЮЗ 4 23 км н/о +10.8 +9.2 90 +8 +8 1009.9 1009.1
04 15.06 ЮЗ 1 24 км н/о +8.8 +7.4 91 +8 +8 1010.1 1009.3
05 15.06 Ю 2 15 км н/о +9.6 +9.1 97 +8 +8 1010.6 1009.7
06 15.06 Ю 3 20 км н/о +10.7 +9.7 94 +9 +9 1010.5 1009.6 +8.5 0.0
07 15.06 Ю 4 19 км н/о +11.6 +9.6 88 +9 +9 1010.6 1009.7
08 15.06 Ю 3 21 км н/о +12.9 +10.3 84 +12 +12 1011.0 1010.1
09 15.06 Ю 3 23 км н/о +14.9 +10.8 76 +14 +14 1010.8 1010.0
10 15.06 Ю 4 45 км н/о +16.7 +10.7 68 +16 +16 1010.8 1009.9
11 15.06 Ю 5 45 км н/о +17.5 +10.2 62 +17 +17 1010.6 1009.8
12 15.06 Ю 3 30 км н/о +16.3 +10.3 68 +16 +16 1010.7 1009.9
13 15.06 Ю 6 50 км н/о +17.6 +9.2 58 +17 +17 1010.6 1009.7
14 15.06 Ю 4 25 км слаб. морось с дождем н/о +16.1 +10.8 71 +15 +15 1010.5 1009.7
15 15.06 Ю 5 50 км в посл. час дождь н/о +18.5 +10.9 61 +19 +19 1010.2 1009.4
16 15.06 Ю 4 35 км слаб. ливневой дождь н/о +17.1 +11.1 68 +17 +17 1010.1 1009.2
17 15.06 Ю 4 35 км слаб. ливневой дождь н/о +16.7 +11.7 72 +16 +16 1009.9 1009.1
18 15.06 ЮЗ 5 50 км слаб. морось с дождем н/о +13.9 +11.0 83 +12 +12 1010.3 1009.5 +19.7 0.0
19 15.06 ЮЗ 2 45 км в посл. час дождь н/о +13.8 +12.4 91 +13 +13 1010.3 1009.4
20 15.06 ЮЗ 4 30 км н/о +12.6 +10.9 89 +11 +11 1010.7 1009.8
21 15.06 З 3 35 км слаб. ливневой дождь н/о +12.7 +11.1 90 +11 +11 1011.0 1010.1
22 15.06 Ю 2 40 км в посл. час дождь н/о +10.4 +9.3 93 +9 +9 1011.4 1010.6
23 15.06 ЮЗ 1 16 км н/о +9.7 +9.0 95 +9 +9 1011.5 1010.6
00 16.06 ЮЗ 2 6000 м ливневой дождь н/о +10.0 +9.8 99 +8 +8 1011.7 1010.9 0.4
01 16.06 ЮЗ 2 35 км слаб. ливневой дождь н/о +10.9 +10.1 95 +10 +10 1011.8 1011.0
02 16.06 Ю 1 9000 м в посл. час дождь н/о +9.1 +8.5 96 +8 +8 1011.9 1011.1
03 16.06 Ю 1 700 м туман н/о +7.5 +6.8 95 +7 +7 1012.3 1011.4
04 16.06 Ю 2 8000 м в посл. час туман н/о +7.8 +7.6 99 +6 +6 1012.5 1011.6
05 16.06 Ю 3 15 км н/о +9.0 +8.7 98 +7 +7 1012.7 1011.9
06 16.06 ЮЗ 4 26 км н/о +10.4 +8.8 90 +8 +8 1013.1 1012.3 +7.1 1
07 16.06 ЮЗ 5 30 км н/о +12.2 +9.7 85 +10 +10 1013.5 1012.6
08 16.06 ЮЗ 4 35 км н/о +13.6 +10.8 83 +12 +12 1013.5 1012.6
09 16.06 Ю 5 29 км н/о +15.0 +9.8 71 +14 +14 1013.2 1012.4
10 16.06 Ю 6 40 км н/о +16.1 +9.7 66 +15 +15 1013.3 1012.4
11 16.06 Ю 7 45 км н/о +15.7 +10.2 70 +14 +14 1013.2 1012.4
12 16.06 Ю 7 50 км н/о +16.6 +10.6 68 +15 +15 1013.2 1012.3
13 16.06 Ю 6 30 км н/о +17.0 +11.6 70 +16 +16 1012.9 1012.1
14 16.06 Ю 6 50 км н/о +18.3 +11.6 65 +18 +18 1012.8 1012.0
15 16.06 Ю 5 45 км н/о +18.1 +11.7 66 +18 +18 1012.5 1011.7
16 16.06 ЮЗ 7 35 км в посл. час дождь н/о +18.1 +11.3 64 +18 +18 1012.5 1011.7
17 16.06 ЮЗ 4 35 км в посл. час дождь н/о +17.2 +11.9 71 +17 +17 1012.8 1012.0
18 16.06 ЮЗ 4 25 км н/о +18.3 +11.8 66 +19 +19 1012.8 1011.9 +19.1 0.2
19 16.06 Ю 2 40 км н/о +17.6 +12.0 70 +18 +18 1012.8 1012.0
20 16.06 ЮЗ 3 45 км н/о +16.7 +10.6 67 +16 +16 1013.0 1012.1
21 16.06 Ю 3 40 км н/о +16.4 +11.1 71 +16 +16 1013.1 1012.3
22 16.06 Ю 3 40 км н/о +15.5 +11.9 79 +15 +15 1013.3 1012.5
23 16.06 Ю 5 35 км н/о +14.7 +11.9 83 +13 +13 1013.2 1012.4
00 17.06 Ю 5 35 км н/о +14.4 +11.4 82 +13 +13 1013.3 1012.5

 

Местоположение метеостанции Леконфилд (Великобритания): широта 53.87 долгота -0.43 высота над уровнем моря 7 м.

В архиве по умолчанию представлена погода в Леконфилде за последнюю неделю. Архивные данные за месяц целиком и за предыдущие месяцы, начиная с января 2011 года, Вы можете получить, выбрав интересующий диапазон дат из раскрывающегося списка и нажав кнопку "Ввод!".


*Определитесь, кто Вы:
робот инопланетянин человек

Внимание! Время в таблицах - всемирное. Для получения местного времени необходимо прибавить поправку, которая равна 0 ч.

Смотрите также архив погоды в соседних городах и на ближайших метеорологических станциях:

Погода в Бридлингтоне (Великобритания) (31 км)
Погода в Донна Нук (Великобритания) (55 км)
Погода в Линтон-он-Узе (Великобритания) (57 км)
Погода в Файлингдейлсе (Великобритания) (58 км)
Погода в Скемптоне (Великобритания) (64 км)
Погода в Дишфорт Эйрфилд (Великобритания) (71 км)
Погода в Топклиффе (Великобритания) (72 км)
Погода в Уоддингтоне (Великобритания) (78 км)
Погода в Лофтусе (Великобритания) (83 км)
Погода в Лееминге (Великобритания) (86 км)

Пояснения к столбцам:

Ветер - указаны скорость ветра в м/с - средняя за 10 мин, порывы в срок и между сроками (в фигурных скобках) и направление, откуда дует ветер: С - северный, СВ - северо-восточный, В - восточный, ЮВ - юго-восточный, Ю - южный, ЮЗ - юго-западный, З - западный, СЗ - северо-западный.
Видимость - горизонтальная дальность видимости в метрах или километрах. При видимости от 1 до 10 км при отсутствии осадков обычно наблюдается дымка, при ухудшении видимости до 1 км и менее - туман. В сухую погоду видимость может ухудшаться дымом, пылью или мглою.
Явления - указаны атмосферные явления, наблюдавшиеся в срок или в последний час перед сроком; фигурными скобками обозначены явления, наблюдавшиеся между сроками (за 1-3 часа до срока); квадратными скобками обозначены град или гололедные отложения с указанием их диаметра в мм.
Облачность - указаны через наклонную черту общая и нижняя облачность в баллах и высота нижней границы облаков в метрах; квадратными скобками обозначены формы облаков: Ci - перистые, Cs - перисто-слоистые, Cc - перисто-кучевые, Ac - высококучевые, As - высокослоистые, Sc - слоисто-кучевые, Ns - слоисто-дождевые, Cu - кучевые, Cb - кучево-дождевые. Подробнее классификацию облаков см. в Атласе облаков (PDF).
T - Температура воздуха - температура, измеренная на высоте 2 м над землей.
Td - Температура точки росы - температура, при понижении до которой содержащийся в воздухе водяной пар достигнет насыщения.
f - Относительная влажность воздуха - влажноcть воздуха, измеренная на высоте 2 м над землей.
Te - Эффективная температура - температура, которую ощущает одетый по сезону человек в тени. Характеристика душности погоды. При расчете учитывается влияние влажности воздуха и скорости ветра на теплоощущения человека.
Tes - Эффективная температура на солнце - температура, которую ощущает человек, с поправкой на солнечный нагрев. Характеристика знойности погоды. Зависит от высоты солнца над горизонтом, облачности и скорости ветра. Ночью, в пасмурную погоду, а также при ветре 12 м/с и более поправка равна нулю.
P - Атмосферное давление - приведенное к уровню моря атмосферное давление.
Po - Атмосферное давление - измеренное на уровне метеостанции атмосферное давление.
Tmin - Минимальная температура - минимум температуры воздуха на высоте 2 м над землей.
Tmax - Максимальная температура - максимум температуры воздуха на высоте 2 м над землей.
R - Количество осадков - Количество выпавших осадков за период времени, мм. При наведении курсора мыши на число - период времени, за который выпало указанное количество осадков.
R24 - Количество осадков - Количество выпавших осадков за 24 часа, мм.
S - Снежный покров - Высота снежного покрова, см. При наведении курсора мыши на число - состояние снежного покрова и степень покрытия местности в баллах.